KE7MWT Weather Reports


Display with metric or nautical units.
time (UTC)temp
F
wind
direction
speed
MPH
gust
MPH
rain 1hr
in
rain 24hr
in
rain mn
in
humidity
%
barometer
mb
20260903171509 91 192 4.0 8.0 0.00 0.00 0.00 46 1013.8
20260903171315 92 218 3.0 5.0 0.00 0.00 0.00 42 1017.4
20260903170823 92 186 3.0 5.0 0.00 0.00 0.00 42 1017.4
20260903170333 92 209 2.0 10.0 0.00 0.00 0.00 43 1017.3
20260903170026 91 173 2.0 10.0 0.00 0.00 0.00 46 1013.9
20260903165840 91 172 4.0 10.0 0.00 0.00 0.00 44 1017.4
20260903165329 92 167 1.0 7.0 0.00 0.00 0.00 44 1017.3
20260903164820 90 211 3.0 7.0 0.00 0.00 0.00 44 1017.4
20260903164515 90 205 1.0 7.0 0.00 0.00 0.00 48 1013.9
20260903164351 91 205 3.0 6.0 0.00 0.00 0.00 44 1017.4
20260903163838 91 234 3.0 7.0 0.00 0.00 0.00 45 1017.4
20260903163330 90 258 2.0 6.0 0.00 0.00 0.00 44 1017.4
20260903163018 90 197 3.0 6.0 0.00 0.00 0.00 48 1014.0
20260903162817 91 222 4.0 6.0 0.00 0.00 0.00 45 1017.4
20260903162329 90 236 2.0 6.0 0.00 0.00 0.00 45 1017.4
20260903161817 90 279 3.0 6.0 0.00 0.00 0.00 46 1017.5
20260903161509 89 167 2.0 9.0 0.00 0.00 0.00 50 1014.1
20260903161330 89 205 3.0 9.0 0.00 0.00 0.00 46 1017.5
20260903160817 89 169 4.0 9.0 0.00 0.00 0.00 46 1017.5
20260903160328 89 262 2.0 5.0 0.00 0.00 0.00 47 1017.6
20260903160011 89 165 2.0 5.0 0.00 0.00 0.00 50 1014.0
20260903155820 89 188 2.0 5.0 0.00 0.00 0.00 46 1017.5
20260903155352 89 181 2.0 4.0 0.00 0.00 0.00 46 1017.5
20260903154818 89 183 2.0 6.0 0.00 0.00 0.00 47 1017.5
20260903154509 88 155 2.0 7.0 0.00 0.00 0.00 51 1014.1
20260903154331 89 185 3.0 6.0 0.00 0.00 0.00 50 1017.6
20260903153839 88 215 4.0 9.0 0.00 0.00 0.00 50 1017.6
20260903153327 88 184 6.0 9.0 0.00 0.00 0.00 50 1017.6
20260903153008 88 205 2.0 7.0 0.00 0.00 0.00 53 1014.1
20260903152815 88 178 3.0 7.0 0.00 0.00 0.00 50 1017.6
20260903152326 88 195 2.0 5.0 0.00 0.00 0.00 50 1017.5
20260903151835 88 163 2.0 5.0 0.00 0.00 0.00 49 1017.6
20260903151513 88 205 1.0 5.0 0.00 0.00 0.00 54 1014.1
20260903151326 88 229 2.0 4.0 0.00 0.00 0.00 50 1017.5
20260903150834 88 189 2.0 5.0 0.00 0.00 0.00 51 1017.6
20260903150346 87 202 2.0 6.0 0.00 0.00 0.00 52 1017.6
20260903150029 86 219 3.0 6.0 0.00 0.00 0.00 56 1014.2
20260903145813 87 199 2.0 4.0 0.00 0.00 0.00 53 1017.6
20260903145344 87 187 1.0 5.0 0.00 0.00 0.00 53 1017.7
20260903144816 86 192 2.0 5.0 0.00 0.00 0.00 54 1017.7
20260903144522 86 215 1.0 5.0 0.00 0.00 0.00 57 1014.2
20260903144328 86 171 1.0 5.0 0.00 0.00 0.00 54 1017.7
20260903143815 86 184 3.0 5.0 0.00 0.00 0.00 54 1017.7
20260903143328 86 212 2.0 5.0 0.00 0.00 0.00 55 1017.7
20260903143025 85 196 2.0 4.0 0.00 0.00 0.00 58 1014.2
20260903142815 86 182 2.0 3.0 0.00 0.00 0.00 54 1017.7
20260903142326 85 87 0.0 2.0 0.00 0.00 0.00 58 1017.6
20260903141814 84 87 0.0 2.0 0.00 0.00 0.00 59 1017.7
20260903141514 84 87 0.0 2.0 0.00 0.00 0.00 63 1014.2
20260903141326 84 87 0.0 2.0 0.00 0.00 0.00 60 1017.7
20260903140854 84 87 0.0 2.0 0.00 0.00 0.00 61 1017.6
20260903140324 83 87 0.0 2.0 0.00 0.00 0.00 61 1017.5
20260903140032 83 87 0.0 2.0 0.00 0.00 0.00 64 1014.0
20260903135816 83 87 0.0 2.0 0.00 0.00 0.00 61 1017.4
20260903135328 83 87 0.0 2.0 0.00 0.00 0.00 61 1017.3
20260903134815 83 87 0.0 2.0 0.00 0.00 0.00 61 1017.2
20260903134513 82 87 0.0 2.0 0.00 0.00 0.00 65 1013.7
20260903134328 83 87 0.0 2.0 0.00 0.00 0.00 62 1017.2
20260903133816 82 84 0.0 2.0 0.00 0.00 0.00 62 1017.1
20260903133348 82 83 0.0 2.0 0.00 0.00 0.00 62 1017.1
20260903133007 82 81 1.0 1.0 0.00 0.00 0.00 66 1013.4
20260903132815 82 81 1.0 1.0 0.00 0.00 0.00 63 1017.0
20260903132326 82 81 1.0 1.0 0.00 0.00 0.00 63 1016.8
20260903131834 82 81 1.0 2.0 0.00 0.00 0.00 63 1016.8
20260903131508 81 81 1.0 2.0 0.00 0.00 0.00 66 1013.3
20260903131324 82 81 1.0 2.0 0.00 0.00 0.00 63 1016.7
20260903130837 82 81 0.0 2.0 0.00 0.00 0.00 63 1016.7
20260903130329 81 81 0.0 2.0 0.00 0.00 0.00 63 1016.6
20260903130007 81 81 0.0 2.0 0.00 0.00 0.00 66 1013.2
20260903125813 81 81 0.0 2.0 0.00 0.00 0.00 63 1016.6
20260903125322 81 81 0.0 2.0 0.00 0.00 0.00 63 1016.7
20260903124827 81 81 1.0 2.0 0.00 0.00 0.00 63 1016.6
20260903124509 80 98 0.0 2.0 0.00 0.00 0.00 67 1013.1
20260903124316 81 99 0.0 2.0 0.00 0.00 0.00 63 1016.6
20260903123821 81 99 0.0 2.0 0.00 0.00 0.00 64 1016.5
20260903123350 81 99 1.0 2.0 0.00 0.00 0.00 64 1016.5
20260903123007 80 83 0.0 1.0 0.00 0.00 0.00 68 1012.9
20260903122814 80 83 0.0 1.0 0.00 0.00 0.00 63 1016.4
20260903122323 81 83 0.0 2.0 0.00 0.00 0.00 62 1016.4
20260903121828 81 83 0.0 2.0 0.00 0.00 0.00 61 1016.3
20260903121507 81 83 0.0 2.0 0.00 0.00 0.00 65 1012.8
20260903121321 81 76 0.0 2.0 0.00 0.00 0.00 61 1016.3
20260903120826 81 75 1.0 2.0 0.00 0.00 0.00 61 1016.3
20260903120315 81 84 1.0 2.0 0.00 0.00 0.00 60 1016.2
20260903120007 81 86 1.0 2.0 0.00 0.00 0.00 63 1012.7
20260903115820 81 86 1.0 2.0 0.00 0.00 0.00 60 1016.2
20260903115329 81 69 0.0 2.0 0.00 0.00 0.00 59 1016.2
20260903114814 81 77 2.0 3.0 0.00 0.00 0.00 59 1016.1
20260903114508 81 76 1.0 3.0 0.00 0.00 0.00 62 1012.6
20260903114323 81 74 2.0 3.0 0.00 0.00 0.00 59 1016.1
20260903113827 81 84 1.0 2.0 0.00 0.00 0.00 58 1016.1
20260903113316 81 94 0.0 2.0 0.00 0.00 0.00 58 1016.0
20260903113007 80 94 0.0 2.0 0.00 0.00 0.00 61 1012.6
20260903112820 81 94 1.0 1.0 0.00 0.00 0.00 58 1016.0
20260903112349 81 94 1.0 2.0 0.00 0.00 0.00 57 1016.0
20260903111817 80 103 0.0 2.0 0.00 0.00 0.00 57 1016.0
20260903111510 80 103 0.0 2.0 0.00 0.00 0.00 61 1012.4
20260903111326 80 103 0.0 2.0 0.00 0.00 0.00 58 1015.9
20260903110831 81 103 0.0 2.0 0.00 0.00 0.00 57 1015.9
20260903110321 81 103 0.0 2.0 0.00 0.00 0.00 56 1015.9
20260903110007 81 103 0.0 2.0 0.00 0.00 0.00 60 1012.3
20260903105825 81 103 0.0 0.0 0.00 0.00 0.00 56 1015.8
20260903105315 81 103 0.0 0.0 0.00 0.00 0.00 55 1015.7
20260903104820 81 103 0.0 0.0 0.00 0.00 0.00 55 1015.8
20260903104508 81 103 0.0 0.0 0.00 0.00 0.00 58 1012.2
20260903104329 81 103 0.0 0.0 0.00 0.00 0.00 55 1015.8
20260903103813 81 103 0.0 0.0 0.00 0.00 0.00 55 1015.7
20260903103322 82 103 0.0 0.0 0.00 0.00 0.00 54 1015.8
20260903103010 81 103 0.0 0.0 0.00 0.00 0.00 58 1012.3
20260903102827 82 103 0.0 0.0 0.00 0.00 0.00 54 1015.8
20260903102320 82 103 0.0 0.0 0.00 0.00 0.00 53 1015.7
20260903101825 82 103 0.0 0.0 0.00 0.00 0.00 52 1015.8
20260903101508 81 103 0.0 0.0 0.00 0.00 0.00 56 1012.3
20260903101314 82 103 0.0 0.0 0.00 0.00 0.00 52 1015.8
20260903100819 82 103 0.0 2.0 0.00 0.00 0.00 52 1015.9
20260903100328 82 103 0.0 2.0 0.00 0.00 0.00 53 1015.9
20260903100011 81 103 0.0 2.0 0.00 0.00 0.00 57 1012.5
20260903095813 82 103 0.0 2.0 0.00 0.00 0.00 54 1015.9
20260903095322 82 103 0.0 0.0 0.00 0.00 0.00 55 1016.0
20260903094827 82 103 0.0 0.0 0.00 0.00 0.00 53 1016.0
20260903094510 82 103 0.0 2.0 0.00 0.00 0.00 56 1012.4
20260903094316 83 103 0.0 2.0 0.00 0.00 0.00 52 1016.0
20260903093825 83 103 0.0 2.0 0.00 0.00 0.00 53 1015.9
20260903093313 83 103 0.0 2.0 0.00 0.00 0.00 53 1015.9
20260903093012 83 103 0.0 2.0 0.00 0.00 0.00 56 1012.4
20260903092818 83 103 0.0 2.0 0.00 0.00 0.00 53 1015.9
20260903092327 83 103 0.0 2.0 0.00 0.00 0.00 53 1015.8
20260903091832 83 103 0.0 2.0 0.00 0.00 0.00 53 1015.7
20260903091513 83 103 0.0 2.0 0.00 0.00 0.00 56 1012.3
20260903091341 84 103 0.0 2.0 0.00 0.00 0.00 53 1015.7
20260903090825 84 103 0.0 2.0 0.00 0.00 0.00 52 1015.7
20260903090315 84 103 0.0 2.0 0.00 0.00 0.00 53 1015.8
20260903090017 84 103 1.0 2.0 0.00 0.00 0.00 56 1012.3
20260903085820 84 113 1.0 2.0 0.00 0.00 0.00 53 1015.7
20260903085329 84 119 1.0 2.0 0.00 0.00 0.00 53 1015.7
20260903084818 84 165 0.0 2.0 0.00 0.00 0.00 53 1015.6
20260903084523 84 165 0.0 3.0 0.00 0.00 0.00 56 1012.1
20260903084327 84 165 0.0 2.0 0.00 0.00 0.00 52 1015.6
20260903083832 84 181 0.0 0.0 0.00 0.00 0.00 53 1015.6
20260903083321 85 183 0.0 0.0 0.00 0.00 0.00 53 1015.6
20260903083011 84 183 0.0 0.0 0.00 0.00 0.00 56 1012.2
20260903082826 85 183 0.0 0.0 0.00 0.00 0.00 52 1015.6
20260903082335 85 183 0.0 0.0 0.00 0.00 0.00 51 1015.6
20260903081819 86 183 0.0 3.0 0.00 0.00 0.00 50 1015.6
20260903081513 86 183 0.0 5.0 0.00 0.00 0.00 53 1012.3
20260903081328 87 183 0.0 5.0 0.00 0.00 0.00 49 1015.7
20260903080813 87 163 1.0 3.0 0.00 0.00 0.00 48 1015.7
20260903080322 87 192 0.0 2.0 0.00 0.00 0.00 48 1015.6
20260903080013 87 205 1.0 3.0 0.00 0.00 0.00 51 1012.2
20260903075827 88 189 1.0 3.0 0.00 0.00 0.00 47 1015.6
20260903075320 88 198 1.0 3.0 0.00 0.00 0.00 47 1015.6
20260903074825 88 204 1.0 3.0 0.00 0.00 0.00 47 1015.6
20260903074513 87 212 1.0 3.0 0.00 0.00 0.00 50 1012.2
20260903074314 88 211 1.0 3.0 0.00 0.00 0.00 46 1015.6
20260903073819 88 204 2.0 3.0 0.00 0.00 0.00 46 1015.5
20260903073328 88 225 1.0 2.0 0.00 0.00 0.00 46 1015.6
20260903073014 88 255 1.0 5.0 0.00 0.00 0.00 49 1012.1
20260903072813 89 238 1.0 5.0 0.00 0.00 0.00 45 1015.5
20260903072322 89 196 2.0 6.0 0.00 0.00 0.00 45 1015.6
20260903071827 89 185 3.0 6.0 0.00 0.00 0.00 45 1015.6
20260903071513 88 184 1.0 4.0 0.00 0.00 0.00 48 1012.3
20260903071316 89 213 1.0 4.0 0.00 0.00 0.00 44 1015.7
20260903070825 89 197 2.0 4.0 0.00 0.00 0.00 45 1015.8
20260903070315 88 215 2.0 4.0 0.00 0.00 0.00 45 1015.7
20260903070015 88 208 1.0 4.0 0.00 0.00 0.00 49 1012.2
20260903065817 88 200 2.0 4.0 0.00 0.00 0.00 45 1015.6
20260903065345 88 212 2.0 3.0 0.00 0.00 0.00 46 1015.6
20260903064829 87 200 1.0 2.0 0.00 0.00 0.00 47 1015.5
20260903064514 87 204 0.0 1.0 0.00 0.00 0.00 50 1012.0
20260903064318 88 204 0.0 1.0 0.00 0.00 0.00 46 1015.4
20260903063823 88 209 1.0 2.0 0.00 0.00 0.00 46 1015.5
20260903063332 88 209 0.0 2.0 0.00 0.00 0.00 46 1015.5
20260903063016 88 232 0.0 2.0 0.00 0.00 0.00 49 1012.0
20260903062816 88 239 0.0 2.0 0.00 0.00 0.00 45 1015.4
20260903062345 89 239 0.0 2.0 0.00 0.00 0.00 44 1015.4
20260903061829 90 239 0.0 2.0 0.00 0.00 0.00 43 1015.4
20260903061516 89 217 0.0 2.0 0.00 0.00 0.00 46 1011.9
20260903061318 90 217 1.0 2.0 0.00 0.00 0.00 42 1015.4
20260903060827 90 215 0.0 2.0 0.00 0.00 0.00 42 1015.3
20260903060336 90 227 0.0 2.0 0.00 0.00 0.00 41 1015.3
20260903060019 90 226 1.0 3.0 0.00 0.00 0.00 44 1011.8
20260903055820 91 187 1.0 3.0 0.00 0.00 0.00 40 1015.3
20260903055329 91 192 1.0 3.0 0.00 0.00 0.00 41 1015.4
20260903054833 90 176 1.0 3.0 0.00 0.00 0.00 41 1015.4
20260903054516 90 190 1.0 3.0 0.00 0.00 0.00 44 1011.9
20260903054323 90 199 2.0 3.0 0.00 0.00 0.00 41 1015.4
20260903053828 89 188 1.0 2.0 0.00 0.00 0.00 42 1015.4
20260903053337 88 188 1.0 2.0 0.00 0.00 0.00 43 1015.4
20260903053028 88 280 0.0 2.0 0.00 0.00 0.00 49 1011.9
20260903052841 88 280 0.0 0.0 0.00 0.00 0.00 45 1015.4
20260903052329 88 280 0.0 2.0 0.00 0.00 0.00 44 1015.4
20260903051833 89 280 0.0 2.0 0.00 0.00 0.00 43 1015.4
20260903051520 88 280 0.0 2.0 0.00 0.00 0.00 46 1011.9
20260903051322 89 280 0.0 1.0 0.00 0.00 0.00 44 1015.3
20260903050827 89 280 0.0 0.0 0.00 0.00 0.00 43 1015.4
20260903050315 89 280 0.0 2.0 0.00 0.00 0.00 44 1015.3
20260903050029 89 280 0.0 2.0 0.00 0.00 0.00 47 1011.8
20260903045824 89 280 0.0 2.0 0.00 0.00 0.00 43 1015.3
20260903045333 89 296 0.0 0.0 0.00 0.00 0.00 43 1015.3
20260903044818 90 296 0.0 0.0 0.00 0.00 0.00 42 1015.4
20260903044519 89 296 0.0 0.0 0.00 0.00 0.00 45 1011.8
20260903044326 90 296 0.0 0.0 0.00 0.00 0.00 42 1015.3
20260903043831 90 296 0.0 2.0 0.00 0.00 0.00 42 1015.2
20260903043339 90 296 0.0 2.0 0.00 0.00 0.00 41 1015.3
20260903043029 90 296 0.0 2.0 0.00 0.00 0.00 45 1011.8
20260903042823 90 296 0.0 2.0 0.00 0.00 0.00 41 1015.3
20260903042331 90 296 0.0 0.0 0.00 0.00 0.00 41 1015.3
20260903041815 91 296 0.0 0.0 0.00 0.00 0.00 41 1015.3
20260903041524 90 296 0.0 0.0 0.00 0.00 0.00 45 1011.8
20260903041324 91 296 0.0 0.0 0.00 0.00 0.00 41 1015.3
20260903040847 91 296 0.0 0.0 0.00 0.00 0.00 41 1015.3
20260903040315 91 296 0.0 0.0 0.00 0.00 0.00 40 1015.2
20260903040021 90 296 0.0 0.0 0.00 0.00 0.00 43 1011.7
20260903035824 91 296 0.0 0.0 0.00 0.00 0.00 40 1015.2
20260903035333 91 296 0.0 0.0 0.00 0.00 0.00 39 1015.1
20260903034818 91 296 0.0 0.0 0.00 0.00 0.00 38 1015.1
20260903034520 91 296 0.0 0.0 0.00 0.00 0.00 42 1011.5
20260903034327 92 296 0.0 0.0 0.00 0.00 0.00 38 1015.1
20260903033832 92 296 0.0 2.0 0.00 0.00 0.00 38 1015.0
20260903033320 93 296 0.0 2.0 0.00 0.00 0.00 37 1014.9
20260903033024 93 296 0.0 2.0 0.00 0.00 0.00 39 1011.4
20260903032825 94 296 0.0 2.0 0.00 0.00 0.00 35 1014.8
20260903032313 94 296 0.0 2.0 0.00 0.00 0.00 34 1014.7
20260903031819 95 296 0.0 2.0 0.00 0.00 0.00 34 1014.7
20260903031523 94 296 0.0 2.0 0.00 0.00 0.00 37 1011.2
20260903031328 95 300 0.0 3.0 0.00 0.00 0.00 34 1014.6
20260903030817 95 292 1.0 3.0 0.00 0.00 0.00 34 1014.6
20260903030326 95 271 1.0 3.0 0.00 0.00 0.00 33 1014.6
20260903030024 94 263 1.0 3.0 0.00 0.00 0.00 37 1011.0
20260903025851 95 290 1.0 3.0 0.00 0.00 0.00 33 1014.5
20260903025319 95 260 1.0 2.0 0.00 0.00 0.00 33 1014.5
20260903024824 95 265 1.0 2.0 0.00 0.00 0.00 33 1014.4
20260903024524 95 278 1.0 2.0 0.00 0.00 0.00 37 1010.9
20260903024332 96 294 1.0 2.0 0.00 0.00 0.00 33 1014.4
20260903023837 95 279 1.0 3.0 0.00 0.00 0.00 33 1014.4
20260903023325 96 278 1.0 4.0 0.00 0.00 0.00 32 1014.4
20260903023023 95 296 1.0 4.0 0.00 0.00 0.00 36 1010.9
20260903022830 96 248 1.0 4.0 0.00 0.00 0.00 32 1014.3
20260903022318 96 279 1.0 3.0 0.00 0.00 0.00 32 1014.3
20260903021823 96 263 1.0 3.0 0.00 0.00 0.00 31 1014.2
20260903021526 96 242 1.0 3.0 0.00 0.00 0.00 35 1010.7
20260903021315 96 249 1.0 3.0 0.00 0.00 0.00 31 1014.2
20260903020820 97 232 2.0 3.0 0.00 0.00 0.00 31 1014.1
20260903020329 97 230 2.0 4.0 0.00 0.00 0.00 31 1014.1
20260903020024 97 267 1.0 4.0 0.00 0.00 0.00 34 1010.6
20260903015814 97 244 1.0 4.0 0.00 0.00 0.00 30 1014.0
20260903015343 98 261 2.0 5.0 0.00 0.00 0.00 29 1014.0
20260903014827 98 245 3.0 5.0 0.00 0.00 0.00 29 1013.9
20260903014523 98 281 1.0 4.0 0.00 0.00 0.00 33 1010.4
20260903014317 98 277 1.0 4.0 0.00 0.00 0.00 29 1013.8
20260903013842 98 278 2.0 7.0 0.00 0.00 0.00 29 1013.8
20260903013350 98 271 3.0 7.0 0.00 0.00 0.00 28 1013.7
20260903013024 98 273 1.0 4.0 0.00 0.00 0.00 32 1010.2
20260903012814 99 252 2.0 4.0 0.00 0.00 0.00 28 1013.7
20260903012343 99 265 2.0 8.0 0.00 0.00 0.00 28 1013.7
20260903011827 99 291 3.0 8.0 0.00 0.00 0.00 28 1013.7
20260903011528 99 274 3.0 8.0 0.00 0.00 0.00 31 1010.4
20260903011316 99 269 3.0 6.0 0.00 0.00 0.00 28 1013.8
20260903010825 100 280 1.0 6.0 0.00 0.00 0.00 28 1013.7
20260903010314 100 346 3.0 6.0 0.00 0.00 0.00 27 1013.7
20260903010006 99 281 2.0 6.0 0.00 0.00 0.00 31 1010.3
20260903005818 100 278 2.0 5.0 0.00 0.00 0.00 28 1013.7
20260903005347 100 283 2.0 5.0 0.00 0.00 0.00 27 1013.7
20260903004851 100 292 2.0 5.0 0.00 0.00 0.00 27 1013.7
20260903004521 100 258 2.0 6.0 0.00 0.00 0.00 30 1010.4
20260903004319 100 254 1.0 6.0 0.00 0.00 0.00 27 1013.7
20260903003823 101 281 1.0 3.0 0.00 0.00 0.00 26 1013.7
20260903003332 100 324 1.0 3.0 0.00 0.00 0.00 25 1013.7
20260903003020 100 351 2.0 3.0 0.00 0.00 0.00 29 1010.4
20260903002817 101 329 1.0 3.0 0.00 0.00 0.00 26 1013.8
20260903002326 100 288 1.0 5.0 0.00 0.00 0.00 26 1013.9
20260903001831 100 257 1.0 8.0 0.00 0.00 0.00 26 1013.8
20260903001524 99 248 3.0 8.0 0.00 0.00 0.00 30 1010.5
20260903001319 100 282 2.0 8.0 0.00 0.00 0.00 26 1014.0
20260903000830 100 257 4.0 9.0 0.00 0.00 0.00 26 1013.9
20260903000321 101 281 5.0 9.0 0.00 0.00 0.00 25 1013.9
20260903000006 101 278 4.0 9.0 0.00 0.00 0.00 29 1010.5
20260902235850 102 292 4.0 8.0 0.00 0.00 0.00 25 1014.0
20260902235320 101 311 2.0 11.0 0.00 0.00 0.00 25 1014.0
20260902234829 102 300 4.0 11.0 0.00 0.00 0.00 25 1014.1
20260902234507 102 279 3.0 8.0 0.00 0.00 0.00 29 1010.7
20260902234321 102 261 3.0 8.0 0.00 0.00 0.00 25 1014.2
20260902233829 102 173 2.0 9.0 0.00 0.00 0.00 26 1014.1
20260902233320 102 215 5.0 9.0 0.00 0.00 0.00 25 1014.2
20260902233015 101 225 3.0 9.0 0.00 0.00 0.00 29 1010.7
20260902232828 101 207 2.0 9.0 0.00 0.00 0.00 25 1014.2
20260902232324 102 233 3.0 9.0 0.00 0.00 0.00 25 1014.3
20260902231832 103 186 3.0 5.0 0.00 0.00 0.00 25 1014.3
20260902231524 102 241 2.0 9.0 0.00 0.00 0.00 29 1011.0
20260902231323 102 218 2.0 8.0 0.00 0.00 0.00 25 1014.4
20260902230830 102 222 4.0 8.0 0.00 0.00 0.00 25 1014.4
20260902230323 102 150 1.0 10.0 0.00 0.00 0.00 25 1014.6
20260902230027 103 218 2.0 10.0 0.00 0.00 0.00 27 1011.2
20260902225831 104 257 4.0 10.0 0.00 0.00 0.00 24 1014.6
20260902225323 104 254 4.0 8.0 0.00 0.00 0.00 25 1014.7
20260902224850 103 261 3.0 8.0 0.00 0.00 0.00 26 1014.7
20260902224506 103 217 4.0 8.0 0.00 0.00 0.00 29 1011.4
20260902224319 103 245 4.0 7.0 0.00 0.00 0.00 25 1014.7
20260902223826 103 232 2.0 8.0 0.00 0.00 0.00 26 1014.8
20260902223322 102 151 3.0 10.0 0.00 0.00 0.00 26 1014.9
20260902223012 102 223 5.0 12.0 0.00 0.00 0.00 30 1011.6
20260902222850 102 196 5.0 12.0 0.00 0.00 0.00 26 1015.1
20260902222320 103 182 4.0 10.0 0.00 0.00 0.00 27 1015.1
20260902221826 102 231 2.0 6.0 0.00 0.00 0.00 26 1015.1
20260902221521 102 236 2.0 7.0 0.00 0.00 0.00 30 1011.8
20260902221319 103 186 4.0 6.0 0.00 0.00 0.00 25 1015.2
20260902220846 102 198 1.0 6.0 0.00 0.00 0.00 25 1015.3
20260902220336 102 355 2.0 9.0 0.00 0.00 0.00 26 1015.4
20260902220038 101 211 2.0 11.0 0.00 0.00 0.00 29 1012.0
20260902215823 102 171 3.0 11.0 0.00 0.00 0.00 26 1015.5
20260902215315 103 281 5.0 11.0 0.00 0.00 0.00 25 1015.5
20260902214823 103 295 3.0 8.0 0.00 0.00 0.00 26 1015.5
20260902214534 102 265 4.0 8.0 0.00 0.00 0.00 29 1012.2
20260902214315 103 240 3.0 7.0 0.00 0.00 0.00 27 1015.6
20260902213826 103 224 3.0 10.0 0.00 0.00 0.00 26 1015.8
20260902213317 103 235 5.0 11.0 0.00 0.00 0.00 26 1015.7
20260902213007 103 259 5.0 11.0 0.00 0.00 0.00 28 1012.4
20260902212825 104 282 6.0 11.0 0.00 0.00 0.00 27 1015.8
20260902212318 103 115 1.0 7.0 0.00 0.00 0.00 27 1015.9
20260902211826 103 215 3.0 7.0 0.00 0.00 0.00 28 1015.9
20260902211514 102 139 2.0 11.0 0.00 0.00 0.00 32 1012.5
20260902211317 102 167 3.0 11.0 0.00 0.00 0.00 28 1016.0
20260902210825 101 202 6.0 11.0 0.00 0.00 0.00 28 1016.1
20260902210318 102 209 4.0 14.0 0.00 0.00 0.00 29 1016.1
20260902210039 101 226 5.0 15.0 0.00 0.00 0.00 32 1012.8
20260902205826 102 196 4.0 12.0 0.00 0.00 0.00 28 1016.2
20260902205321 102 180 2.0 10.0 0.00 0.00 0.00 29 1016.3
20260902204848 101 127 3.0 10.0 0.00 0.00 0.00 29 1016.4
20260902204533 101 211 4.0 10.0 0.00 0.00 0.00 32 1013.1
20260902204319 102 202 4.0 10.0 0.00 0.00 0.00 28 1016.5
20260902203828 102 275 4.0 10.0 0.00 0.00 0.00 29 1016.5
20260902203318 102 202 3.0 6.0 0.00 0.00 0.00 28 1016.6
20260902203028 100 155 1.0 11.0 0.00 0.00 0.00 33 1013.2
20260902202827 100 62 1.0 11.0 0.00 0.00 0.00 28 1016.7
20260902202317 101 232 3.0 11.0 0.00 0.00 0.00 29 1016.9
20260902201825 101 200 4.0 10.0 0.00 0.00 0.00 30 1017.0
20260902201512 101 195 5.0 11.0 0.00 0.00 0.00 32 1013.5
20260902201337 102 216 4.0 12.0 0.00 0.00 0.00 29 1017.0
20260902200823 101 244 4.0 12.0 0.00 0.00 0.00 29 1017.1
20260902200318 101 242 5.0 10.0 0.00 0.00 0.00 30 1017.1
20260902200018 100 219 6.0 11.0 0.00 0.00 0.00 34 1013.7
20260902195827 100 176 3.0 7.0 0.00 0.00 0.00 30 1017.2
20260902195318 101 171 2.0 7.0 0.00 0.00 0.00 29 1017.3
20260902194826 100 184 2.0 6.0 0.00 0.00 0.00 30 1017.4
20260902194522 99 242 3.0 8.0 0.00 0.00 0.00 33 1014.0
20260902194318 100 207 3.0 8.0 0.00 0.00 0.00 29 1017.5
20260902193824 101 207 4.0 8.0 0.00 0.00 0.00 30 1017.5
20260902193336 99 55 1.0 5.0 0.00 0.00 0.00 31 1017.6
20260902193027 99 302 1.0 5.0 0.00 0.00 0.00 34 1014.1
20260902192843 100 15 2.0 5.0 0.00 0.00 0.00 30 1017.6
20260902192313 100 112 2.0 7.0 0.00 0.00 0.00 30 1017.7
20260902191841 99 279 3.0 9.0 0.00 0.00 0.00 31 1017.8
20260902191510 98 241 4.0 10.0 0.00 0.00 0.00 35 1014.4
20260902191326 99 199 4.0 9.0 0.00 0.00 0.00 31 1017.9
20260902190814 97 89 3.0 10.0 0.00 0.00 0.00 33 1017.9
20260902190329 97 252 4.0 10.0 0.00 0.00 0.00 33 1018.0
20260902190017 98 192 5.0 10.0 0.00 0.00 0.00 37 1014.7
20260902185837 98 194 4.0 7.0 0.00 0.00 0.00 34 1018.1
20260902185328 98 165 3.0 8.0 0.00 0.00 0.00 34 1018.1
20260902184816 98 278 3.0 8.0 0.00 0.00 0.00 34 1018.2
20260902184530 97 115 1.0 7.0 0.00 0.00 0.00 40 1014.7
20260902184326 97 128 1.0 7.0 0.00 0.00 0.00 37 1018.2
20260902183815 97 153 2.0 9.0 0.00 0.00 0.00 36 1018.4
20260902183327 97 234 4.0 9.0 0.00 0.00 0.00 35 1018.4
20260902183027 97 184 3.0 9.0 0.00 0.00 0.00 40 1015.1
20260902182814 97 205 3.0 8.0 0.00 0.00 0.00 37 1018.5
20260902182327 97 262 1.0 5.0 0.00 0.00 0.00 35 1018.6
20260902181835 98 187 2.0 8.0 0.00 0.00 0.00 37 1018.7
20260902181528 96 131 3.0 8.0 0.00 0.00 0.00 41 1015.2
20260902181329 97 169 3.0 8.0 0.00 0.00 0.00 39 1018.7
20260902180818 97 110 1.0 6.0 0.00 0.00 0.00 38 1018.7
20260902180329 96 132 1.0 6.0 0.00 0.00 0.00 38 1018.7
20260902180014 96 124 1.0 6.0 0.00 0.00 0.00 42 1015.3
20260902175836 96 111 2.0 6.0 0.00 0.00 0.00 39 1018.8
20260902175328 96 91 1.0 7.0 0.00 0.00 0.00 39 1018.9
20260902174816 95 135 2.0 9.0 0.00 0.00 0.00 39 1018.8
20260902174519 94 177 3.0 9.0 0.00 0.00 0.00 44 1015.4
20260902174329 95 178 5.0 9.0 0.00 0.00 0.00 40 1018.9
20260902173836 94 205 3.0 8.0 0.00 0.00 0.00 41 1018.9
20260902173348 94 196 3.0 8.0 0.00 0.00 0.00 40 1019.0
20260902173025 94 198 2.0 8.0 0.00 0.00 0.00 44 1015.6
20260902172815 94 95 3.0 8.0 0.00 0.00 0.00 40 1018.9
20260902172327 94 277 3.0 7.0 0.00 0.00 0.00 40 1019.0
20260902171819 95 244 4.0 7.0 0.00 0.00 0.00 39 1019.1